CW1575 Weather Reports


Display with metric or nautical units.
time (UTC)temp
F
wind
direction
speed
MPH
gust
MPH
rain 1hr
in
rain 24hr
in
rain mn
in
humidity
%
barometer
mb
20140423113521 48 186 0.0 0.0 0.00 0.00 0.00 58 1002.3
20140423112522 48 186 0.0 1.0 0.00 0.00 0.00 58 1002.4
20140423111521 48 186 0.0 1.0 0.00 0.00 0.00 57 1002.2
20140423110522 48 186 0.0 3.0 0.00 0.00 0.00 58 1002.2
20140423105522 48 186 0.0 1.0 0.00 0.00 0.00 60 1002.1
20140423104521 49 186 0.0 1.0 0.00 0.00 0.00 60 1002.2
20140423103521 49 186 0.0 0.0 0.00 0.00 0.00 60 1002.4
20140423102521 50 186 0.0 0.0 0.00 0.00 0.00 59 1002.5
20140423101522 50 186 0.0 1.0 0.00 0.00 0.00 58 1002.6
20140423100522 51 186 0.0 0.0 0.00 0.00 0.00 56 1002.8
20140423095521 51 186 0.0 2.0 0.00 0.00 0.00 54 1002.9
20140423094522 52 186 0.0 2.0 0.00 0.00 0.00 53 1003.0
20140423093521 52 186 0.0 2.0 0.00 0.00 0.00 52 1003.0
20140423092522 53 186 0.0 0.0 0.00 0.00 0.00 51 1003.2
20140423091522 53 186 0.0 1.0 0.00 0.00 0.00 50 1003.1
20140423090522 54 186 0.0 0.0 0.00 0.00 0.00 50 1003.3
20140423085521 54 186 0.0 0.0 0.00 0.00 0.00 49 1003.3
20140423084521 54 186 0.0 0.0 0.00 0.00 0.00 49 1003.4
20140423083522 55 186 0.0 1.0 0.00 0.00 0.00 48 1003.6
20140423082522 55 186 0.0 3.0 0.00 0.00 0.00 48 1003.9
20140423081522 55 186 0.0 3.0 0.00 0.00 0.00 48 1004.1
20140423080522 55 186 1.0 3.0 0.00 0.00 0.00 49 1004.1
20140423075523 56 187 0.0 3.0 0.00 0.00 0.00 49 1004.4
20140423074522 56 187 0.0 5.0 0.00 0.00 0.00 48 1004.5
20140423073522 56 198 1.0 3.0 0.00 0.00 0.00 47 1004.5
20140423072522 57 199 1.0 3.0 0.00 0.00 0.00 47 1004.6
20140423071522 57 200 0.0 2.0 0.00 0.00 0.00 48 1004.7
20140423070521 58 200 1.0 5.0 0.00 0.00 0.00 48 1005.0
20140423065523 59 196 1.0 5.0 0.00 0.00 0.00 47 1004.6
20140423064522 59 192 2.0 6.0 0.00 0.00 0.00 43 1004.6
20140423063522 59 174 0.0 8.0 0.00 0.00 0.00 42 1004.8
20140423062521 59 180 2.0 12.0 0.00 0.00 0.00 42 1004.9
20140423061512 59 170 2.0 12.0 0.00 0.00 0.00 42 1005.0
20140423060524 59 171 3.0 12.0 0.00 0.00 0.00 43 1005.0
20140423055521 59 163 2.0 9.0 0.00 0.00 0.00 43 1005.1
20140423054522 60 174 2.0 7.0 0.00 0.00 0.00 43 1005.3
20140423053521 60 169 0.0 5.0 0.00 0.00 0.00 43 1005.2
20140423052522 61 169 0.0 6.0 0.00 0.00 0.00 43 1005.4
20140423051522 61 170 0.0 7.0 0.00 0.00 0.00 42 1005.4
20140423050523 62 169 0.0 6.0 0.00 0.00 0.00 41 1005.5
20140423045522 62 167 0.0 9.0 0.00 0.00 0.00 41 1005.7
20140423044521 62 167 2.0 9.0 0.00 0.00 0.00 40 1005.9
20140423043522 63 184 0.0 8.0 0.00 0.00 0.00 40 1006.1
20140423042521 63 166 2.0 10.0 0.00 0.00 0.00 39 1006.3
20140423041523 63 191 3.0 12.0 0.00 0.00 0.00 39 1006.3
20140423040521 63 179 7.0 16.0 0.00 0.00 0.00 39 1006.3
20140423035522 63 171 3.0 13.0 0.00 0.00 0.00 39 1006.3
20140423034523 64 159 3.0 9.0 0.00 0.00 0.00 38 1006.4
20140423033523 64 156 2.0 9.0 0.00 0.00 0.00 38 1006.5
20140423032522 64 146 0.0 3.0 0.00 0.00 0.00 38 1006.5
20140423031521 65 144 0.0 7.0 0.00 0.00 0.00 38 1006.5
20140423030522 65 163 2.0 8.0 0.00 0.00 0.00 37 1006.4
20140423025522 65 212 1.0 3.0 0.00 0.00 0.00 38 1006.6
20140423024523 66 212 1.0 9.0 0.00 0.00 0.00 37 1006.8
20140423023521 66 202 3.0 7.0 0.00 0.00 0.00 38 1006.7
20140423022521 67 82 1.0 3.0 0.00 0.00 0.00 37 1006.7
20140423021521 67 78 0.0 3.0 0.00 0.00 0.00 35 1006.4
20140423020521 67 72 1.0 5.0 0.00 0.00 0.00 33 1006.5
20140423015521 68 20 0.0 0.0 0.00 0.00 0.00 33 1006.4
20140423014521 69 20 0.0 1.0 0.00 0.00 0.00 31 1006.6
20140423013521 70 20 0.0 0.0 0.00 0.00 0.00 30 1006.8
20140423012522 70 20 0.0 0.0 0.00 0.00 0.00 30 1006.9
20140423011521 71 20 1.0 3.0 0.00 0.00 0.00 29 1007.0
20140423010523 71 20 2.0 5.0 0.00 0.00 0.00 29 1007.1
20140423005521 72 20 1.0 7.0 0.00 0.00 0.00 28 1006.8
20140423004522 72 15 2.0 12.0 0.00 0.00 0.00 28 1007.1
20140423003522 74 288 3.0 8.0 0.00 0.00 0.00 26 1007.2
20140423002521 74 242 0.0 3.0 0.00 0.00 0.00 27 1007.4
20140423001521 74 242 0.0 5.0 0.00 0.00 0.00 27 1007.5
20140423000521 74 242 1.0 5.0 0.00 0.00 0.00 27 1007.6
20140422235522 74 242 2.0 5.0 0.00 0.00 0.00 28 1007.7
20140422234523 74 261 1.0 6.0 0.00 0.00 0.00 28 1007.7
20140422233523 74 266 1.0 8.0 0.00 0.00 0.00 26 1007.6
20140422232522 75 292 5.0 12.0 0.00 0.00 0.00 27 1007.7
20140422231522 75 237 7.0 13.0 0.00 0.00 0.00 27 1007.9
20140422230522 74 233 3.0 14.0 0.00 0.00 0.00 29 1008.0
20140422225522 74 219 7.0 15.0 0.00 0.00 0.00 29 1008.3
20140422224522 75 219 7.0 17.0 0.00 0.00 0.00 27 1008.4
20140422223523 76 271 3.0 13.0 0.00 0.00 0.00 28 1008.3
20140422222523 77 182 2.0 9.0 0.00 0.00 0.00 23 1008.1
20140422221523 78 200 5.0 13.0 0.00 0.00 0.00 22 1008.2
20140422220523 79 184 2.0 8.0 0.00 0.00 0.00 18 1007.9
20140422215522 80 199 2.0 5.0 0.00 0.00 0.00 18 1008.1
20140422214523 81 192 2.0 7.0 0.00 0.00 0.00 18 1008.3
20140422213523 81 173 3.0 12.0 0.00 0.00 0.00 17 1008.4
20140422212523 81 179 3.0 10.0 0.00 0.00 0.00 17 1008.8
20140422211522 80 179 4.0 12.0 0.00 0.00 0.00 20 1009.2
20140422210522 79 139 1.0 6.0 0.00 0.00 0.00 19 1009.4
20140422205523 78 107 2.0 6.0 0.00 0.00 0.00 19 1009.2
20140422204522 78 86 2.0 3.0 0.00 0.00 0.00 20 1009.5
20140422203523 78 12 1.0 3.0 0.00 0.00 0.00 20 1009.7
20140422202522 78 322 1.0 5.0 0.00 0.00 0.00 20 1009.9
20140422201522 78 343 2.0 9.0 0.00 0.00 0.00 21 1010.1
20140422200522 79 333 1.0 15.0 0.00 0.00 0.00 20 1010.3
20140422195521 79 200 6.0 16.0 0.00 0.00 0.00 20 1010.3
20140422194522 78 216 9.0 17.0 0.00 0.00 0.00 20 1010.4
20140422193522 79 28 6.0 10.0 0.00 0.00 0.00 20 1010.2
20140422192521 80 91 3.0 12.0 0.00 0.00 0.00 19 1010.7
20140422191522 80 113 4.0 12.0 0.00 0.00 0.00 18 1010.8
20140422190523 81 106 2.0 9.0 0.00 0.00 0.00 18 1011.0
20140422185521 82 86 5.0 12.0 0.00 0.00 0.00 19 1011.7
20140422184522 82 79 2.0 10.0 0.00 0.00 0.00 18 1011.9
20140422183522 82 106 4.0 12.0 0.00 0.00 0.00 18 1012.1
20140422182522 81 120 1.0 8.0 0.00 0.00 0.00 17 1012.3
20140422181522 81 138 6.0 12.0 0.00 0.00 0.00 18 1012.8
20140422180522 80 116 6.0 13.0 0.00 0.00 0.00 19 1012.9
20140422175522 79 123 2.0 8.0 0.00 0.00 0.00 19 1013.1
20140422174522 79 107 3.0 12.0 0.00 0.00 0.00 20 1013.5
20140422173522 78 113 3.0 9.0 0.00 0.00 0.00 21 1013.6
20140422172522 77 92 1.0 9.0 0.00 0.00 0.00 23 1013.8
20140422171521 76 95 1.0 9.0 0.00 0.00 0.00 22 1014.2
20140422170523 75 114 3.0 7.0 0.00 0.00 0.00 24 1014.4
20140422165521 74 135 2.0 3.0 0.00 0.00 0.00 27 1014.4
20140422164521 73 135 0.0 2.0 0.00 0.00 0.00 28 1014.7
20140422163522 72 135 1.0 7.0 0.00 0.00 0.00 28 1015.0
20140422162521 71 134 1.0 5.0 0.00 0.00 0.00 29 1015.0
20140422161521 71 139 1.0 5.0 0.00 0.00 0.00 30 1015.3
20140422160522 69 134 2.0 9.0 0.00 0.00 0.00 32 1015.3
20140422155521 68 111 2.0 8.0 0.00 0.00 0.00 34 1015.3
20140422154522 66 114 1.0 7.0 0.00 0.00 0.00 36 1015.6
20140422153521 65 161 0.0 5.0 0.00 0.00 0.00 38 1015.5
20140422152521 63 162 1.0 2.0 0.00 0.00 0.00 39 1015.7
20140422151521 61 162 0.0 5.0 0.00 0.00 0.00 42 1015.9
20140422150521 60 162 0.0 2.0 0.00 0.00 0.00 46 1016.1
20140422145521 58 162 1.0 6.0 0.00 0.00 0.00 45 1016.4
20140422144522 56 151 1.0 5.0 0.00 0.00 0.00 48 1016.6
20140422143521 55 151 1.0 5.0 0.00 0.00 0.00 51 1016.8
20140422142522 53 151 2.0 3.0 0.00 0.00 0.00 53 1016.8
20140422141521 52 151 0.0 3.0 0.00 0.00 0.00 55 1017.1
20140422140521 50 151 0.0 2.0 0.00 0.00 0.00 58 1017.2
20140422135522 49 151 0.0 2.0 0.00 0.00 0.00 60 1017.2
20140422134521 47 151 1.0 3.0 0.00 0.00 0.00 64 1017.4
20140422133521 46 151 0.0 3.0 0.00 0.00 0.00 68 1017.0
20140422132521 44 151 0.0 0.0 0.00 0.00 0.00 68 1017.3
20140422131521 44 151 0.0 0.0 0.00 0.00 0.00 70 1017.2
20140422130520 44 151 0.0 0.0 0.00 0.00 0.00 69 1017.3
20140422125521 44 151 0.0 0.0 0.00 0.00 0.00 69 1017.4
20140422124522 44 151 0.0 0.0 0.00 0.00 0.00 68 1017.3
20140422123521 44 151 0.0 0.0 0.00 0.00 0.00 68 1017.3
20140422122521 44 151 0.0 0.0 0.00 0.00 0.00 67 1017.4
20140422121521 45 151 0.0 0.0 0.00 0.00 0.00 67 1017.5
20140422120521 45 151 0.0 0.0 0.00 0.00 0.00 66 1017.5
20140422115522 45 151 0.0 0.0 0.00 0.00 0.00 66 1017.5
20140422114521 45 151 0.0 0.0 0.00 0.00 0.00 66 1017.6